Weather in Ilim

Russia / Zabaykalsky Krai     52°12′43″N   116°02′19″E
temp.,
°C
wind,
m/s
gust,
m/s
humid.,
%
clouds,
%
prec.,
mm/h
press.,
hPa
HPBL,
m
5 march, fri
fri500:00−27nw22782 0.0 103719
03:00−29wnw22801 0.0 104019
06:00−31wnw12830 0.0 104319
09:00−30w11770 0.0 104519
12:00−22ssw12670 0.0 1043361
15:00−17s34600 0.0 1040844
18:00−19s46830 0.0 1040184
21:00−26sw23890 0.0 104220
6 march, sat
sat600:00−27ssw22890 0.0 104119
03:00−29ssw11921 0.0 104019
06:00−27ssw119250 0.0 103819
09:00−27ene019455 0.0 103619
12:00−22se1189100 0.0 1032308
15:00−18sse2284100 0.0 1028450
18:00−16s2393100 0.3 1027284
21:00−20s129899 0.3 102820
7 march, sun
sun700:00−22sw129777 0.0 102820
03:00−23sw119938 0.0 102820
06:00−23ssw01980 0.0 102820
09:00−21s11920 0.0 102920
12:00−13sse22850 0.0 1026235
15:00−9sse348834 0.0 1022340
18:00−9sse239392 0.0 102171
21:00−13ssw229493 0.0 102221
8 march, mon
mon800:00−15ssw229657 0.0 102121
03:00−16ssw129850 0.0 102020
06:00−15ssw2295100 0.0 101923
09:00−11ssw2292100 0.0 101883
12:00−4sw2581100 0.0 1015358
15:000wnw4882100 0.1 1013992
18:00−1w51280100 0.8 1012722
21:00−7wnw6167159 1.0 1016524
9 march, tue
tue900:00−12wnw4117752 0.0 1021226
03:00−15wnw447326 0.0 102655
06:00−18w33730 0.0 102924
09:00−17w33750 0.0 103336
12:00−8w23640 0.0 1031297
15:00−6ssw44677 0.0 1029625
18:00−9ssw4982100 0.0 1027324
21:00−14s2383100 0.0 102727